星链-3241 (STARLINK-3241 )

导读

STARLINK-3241是美国SpaceX星链(Starlink)项目中的一颗低轨道通信卫星,于北京时间2021年12月2日发射入轨。它隶属于星链第一代卫星群,运行在约550公里近地轨道,配备先进通信载荷,为全球提供高速低延迟宽带互联网服务,支持偏远地区网络接入,是星链全球卫星互联网星座组网的组成部分,服务覆盖全球偏远区域与特殊场景通信需求。

Basic Information
目录编号:
49745
目录名称:
STARLINK-3241
国际标识:
2021-115X
轨道中心:
EARTH
卫星名称:
星链-3241
卫星全名:
星链-3241 (STARLINK-3241 )
卫星状态:
在轨 (已飞行1658 天)
发射日期:
2021-12-02 UTC
国别 :
美国 (US)
星等 :
--
Orbit Information
数据来源 国际轨道数据 AOE轨道数据
星历时间 2026-06-17T07:37:55+0800
23小时前
查看轨道信息
2026-06-12T23:00:00+0800
5天前
查看轨道信息
半长轴 6917.901km 6917.888km
偏心率 0.0001113 0.0001472
轨道倾角 53.160° 53.159°
近地点辐角 87.502° 71.730°
升交点赤经 63.246° 82.845°
平近点角 272.610° 354.596°
近地点 538.994km 538.732km
远地点 540.534km 540.77km
周期 95.438分钟 95.438分钟
每日圈数 15.088335 15.088376
Detailed Information
固有亮度:
5
最大亮度:
2.5
卫星平台:
Starlink v1.5
覆盖范围:
全球
运营商:
太空探索技术公司
运营商所在国:
美国
制造商(研发单位):
太空探索技术公司
制造商所在国:
美国
使用方式:
暂无
Satellite Introduction
星链(Starlink)计划是由太空探索技术公司(SpaceX)提出的一个巨型低轨卫星互联网星座项目,计划在2019年至2024年间在太空搭建由约1.2万颗卫星组成的“星链”网络,其中1584颗将部署在地球上空550千米处的近地轨道,并从2020年开始工作。该卫星仍在工作。
2D Orbit Map
3D Orbit Map
Orbit Altitude Analysis Chart
Orbit Inclination Analysis Chart
Orbit Comprehensive Analysis Chart
View Comprehensive Chart